Location: Congrier
(47.8099°N, 1.1170°W)
Time: 15:56:31
(UTC+00:00)

Meteor 1-27 - Visible Passes

Search period start: 30 September 2023 00:00
Search period end: 10 October 2023 00:00
Orbit: 838 x 891 km, 81.3° (Epoch: 29 September)

Date Brightness Start Highest point End Pass type
(mag) Time Alt. Az. Time Alt. Az. Time Alt. Az.
30 Sep 6.5 01:03:55 21° NNE 01:03:55 21° NNE 01:05:44 10° NNE visible
30 Sep 6.3 02:46:14 17° NNW 02:46:14 17° NNW 02:48:10 10° NNW visible
01 Oct 6.6 00:56:15 19° NNE 00:56:15 19° NNE 00:57:50 10° NNE visible
01 Oct 6.4 02:38:34 16° NNW 02:38:34 16° NNW 02:40:16 10° NNW visible
02 Oct 6.7 00:48:35 18° NNE 00:48:35 18° NNE 00:49:56 10° NNE visible
02 Oct 6.5 02:30:53 15° NNW 02:30:53 15° NNW 02:32:22 10° NNW visible
03 Oct 6.8 00:40:53 16° NNE 00:40:53 16° NNE 00:42:02 10° NNE visible
03 Oct 6.5 02:23:12 15° NNW 02:23:12 15° NNW 02:24:29 10° NNW visible
04 Oct 6.9 00:33:11 15° NNE 00:33:11 15° NNE 00:34:07 10° NNE visible
04 Oct 6.6 02:15:30 14° NNW 02:15:30 14° NNW 02:16:34 10° NNW visible
05 Oct 6.9 00:25:29 14° NNE 00:25:29 14° NNE 00:26:13 10° NNE visible
05 Oct 6.7 02:07:48 13° NNW 02:07:48 13° NNW 02:08:40 10° NNW visible
06 Oct 7.0 00:17:46 13° NNE 00:17:46 13° NNE 00:18:19 10° NNE visible
06 Oct 6.8 02:00:05 13° NNW 02:00:05 13° NNW 02:00:47 10° NNW visible
07 Oct 7.1 00:10:03 12° NNE 00:10:03 12° NNE 00:10:25 10° NNE visible
07 Oct 6.8 01:52:22 12° NNW 01:52:22 12° NNW 01:52:52 10° NNW visible
08 Oct 7.1 00:02:20 11° NNE 00:02:20 11° NNE 00:02:30 10° NNE visible
08 Oct 6.9 01:44:38 11° NNW 01:44:38 11° NNW 01:44:58 10° NNW visible
09 Oct 7.0 01:36:54 11° NNW 01:36:54 11° NNW 01:37:04 10° NNW visible
